EW0415 Weather Reports


Display with metric or nautical units.
time (UTC)temp
F
wind
direction
speed
MPH
gust
MPH
rain 1hr
in
rain 24hr
in
rain mn
in
humidity
%
barometer
mb
20260510081007 61 0 0.0 0.0 0.00 0.00 0.00 65 1030.6
20260510080508 61 0 0.0 0.0 0.00 0.00 0.00 65 1030.6
20260510080028 62 0 0.0 0.0 0.00 0.00 0.00 65 1030.5
20260510075508 62 0 0.0 0.0 0.00 0.00 0.00 65 1030.6
20260510075012 62 0 0.0 1.0 0.00 0.00 0.00 65 1030.5
20260510074528 62 0 0.0 2.0 0.00 0.00 0.00 65 1030.3
20260510074011 62 219 0.0 2.0 0.00 0.00 0.00 65 1030.2
20260510073510 63 0 0.0 2.0 0.00 0.00 0.00 65 1030.2
20260510073045 63 0 0.0 2.0 0.00 0.00 0.00 65 1030.3
20260510072511 63 0 0.0 0.0 0.00 0.00 0.00 64 1030.2
20260510072010 63 0 0.0 1.0 0.00 0.00 0.00 64 1030.3
20260510071529 63 0 0.0 1.0 0.00 0.00 0.00 64 1030.2
20260510071011 63 0 0.0 2.0 0.00 0.00 0.00 64 1030.2
20260510070511 63 0 0.0 3.0 0.00 0.00 0.00 63 1030.1
20260510070026 63 0 0.0 3.0 0.00 0.00 0.00 63 1030.2
20260510065515 64 0 0.0 3.0 0.00 0.00 0.00 63 1030.1
20260510065016 64 0 0.0 2.0 0.00 0.00 0.00 63 1030.0
20260510064527 64 0 0.0 4.0 0.00 0.00 0.00 63 1030.0
20260510064012 64 225 0.0 4.0 0.00 0.00 0.00 63 1030.0
20260510063510 64 226 0.0 3.0 0.00 0.00 0.00 63 1029.9
20260510063030 64 223 0.0 3.0 0.00 0.00 0.00 63 1029.9
20260510062513 64 0 0.0 3.0 0.00 0.00 0.00 63 1029.9
20260510062008 64 0 0.0 3.0 0.00 0.00 0.00 63 1029.8
20260510061528 64 0 1.0 3.0 0.00 0.00 0.00 62 1029.8
20260510061011 64 220 0.0 3.0 0.00 0.00 0.00 62 1029.8
20260510060511 64 221 0.0 3.0 0.00 0.00 0.00 62 1029.9
20260510060037 64 0 0.0 4.0 0.00 0.00 0.00 62 1029.9
20260510055511 65 223 1.0 4.0 0.00 0.00 0.00 62 1029.9
20260510055013 65 230 2.0 4.0 0.00 0.00 0.00 61 1029.8
20260510054528 65 0 1.0 4.0 0.00 0.00 0.00 61 1029.8
20260510054012 65 0 0.0 4.0 0.00 0.00 0.00 61 1029.9
20260510053512 65 219 0.0 4.0 0.00 0.00 0.00 61 1029.8
20260510053028 65 218 1.0 4.0 0.00 0.00 0.00 61 1029.8
20260510052510 65 0 0.0 2.0 0.00 0.00 0.00 62 1029.8
20260510052011 65 0 0.0 1.0 0.00 0.00 0.00 62 1029.8
20260510051528 65 0 0.0 1.0 0.00 0.00 0.00 62 1029.8
20260510051011 65 218 0.0 1.0 0.00 0.00 0.00 63 1029.8
20260510050508 65 0 0.0 1.0 0.00 0.00 0.00 62 1029.8
20260510050028 65 0 0.0 2.0 0.00 0.00 0.00 63 1029.9
20260510045511 65 0 0.0 2.0 0.00 0.00 0.00 62 1029.7
20260510045010 65 0 0.0 3.0 0.00 0.00 0.00 62 1029.8
20260510044530 65 0 0.0 3.0 0.00 0.00 0.00 61 1029.8
20260510044010 65 0 0.0 2.0 0.00 0.00 0.00 62 1029.9
20260510043511 65 0 0.0 2.0 0.00 0.00 0.00 61 1029.9
20260510043028 65 0 0.0 2.0 0.00 0.00 0.00 61 1030.0
20260510042511 65 0 0.0 3.0 0.00 0.00 0.00 62 1029.9
20260510042010 65 218 0.0 3.0 0.00 0.00 0.00 61 1029.9
20260510041535 65 218 1.0 3.0 0.00 0.00 0.00 62 1029.9
20260510041015 65 0 1.0 3.0 0.00 0.00 0.00 62 1030.0
20260510040511 65 0 0.0 3.0 0.00 0.00 0.00 63 1029.9
20260510040028 65 0 0.0 3.0 0.00 0.00 0.00 63 1029.9
20260510035511 65 0 0.0 2.0 0.00 0.00 0.00 64 1030.0
20260510035009 65 218 0.0 5.0 0.00 0.00 0.00 64 1030.0
20260510034529 64 0 1.0 5.0 0.00 0.00 0.00 64 1030.2
20260510034009 64 217 1.0 4.0 0.00 0.00 0.00 65 1030.2
20260510033512 64 0 0.0 2.0 0.00 0.00 0.00 65 1030.3
20260510033030 64 0 0.0 2.0 0.00 0.00 0.00 65 1030.4
20260510032512 64 0 0.0 3.0 0.00 0.00 0.00 66 1030.4
20260510032011 64 0 0.0 3.0 0.00 0.00 0.00 66 1030.4
20260510031530 64 213 0.0 3.0 0.00 0.00 0.00 66 1030.5
20260510031010 64 0 0.0 2.0 0.00 0.00 0.00 68 1030.4
20260510030511 64 0 0.0 2.0 0.00 0.00 0.00 68 1030.6
20260510030034 64 213 0.0 2.0 0.00 0.00 0.00 68 1030.6
20260510025508 64 0 0.0 0.0 0.00 0.00 0.00 68 1030.6
20260510025011 64 0 0.0 4.0 0.00 0.00 0.00 69 1030.8
20260510024534 63 0 0.0 4.0 0.00 0.00 0.00 70 1030.9
20260510024008 63 213 1.0 4.0 0.00 0.00 0.00 70 1030.9
20260510023511 63 0 0.0 1.0 0.00 0.00 0.00 71 1031.0
20260510023028 63 0 0.0 3.0 0.00 0.00 0.00 72 1031.1
20260510022511 63 0 0.0 4.0 0.00 0.00 0.00 72 1031.1
20260510022015 62 215 0.0 4.0 0.00 0.00 0.00 74 1031.1
20260510021534 62 0 0.0 3.0 0.00 0.00 0.00 76 1031.3
20260510021010 62 0 0.0 4.0 0.00 0.00 0.00 77 1031.3
20260510020511 61 0 0.0 4.0 0.00 0.00 0.00 78 1031.4
20260510020029 61 0 0.0 2.0 0.00 0.00 0.00 79 1031.5
20260510015517 60 0 0.0 3.0 0.00 0.00 0.00 81 1031.5
20260510015010 60 214 0.0 3.0 0.00 0.00 0.00 82 1031.5
20260510014530 60 214 0.0 3.0 0.00 0.00 0.00 84 1031.6
20260510014010 60 0 0.0 2.0 0.00 0.00 0.00 85 1031.8
20260510013510 59 0 0.0 2.0 0.00 0.00 0.00 86 1031.7
20260510013027 59 0 0.0 2.0 0.00 0.00 0.00 86 1031.7
20260510012534 59 0 0.0 2.0 0.00 0.00 0.00 87 1031.7
20260510012011 58 0 0.0 2.0 0.00 0.00 0.00 88 1031.7
20260510011530 58 214 0.0 2.0 0.00 0.00 0.00 88 1031.8
20260510011009 58 0 0.0 2.0 0.00 0.00 0.00 88 1031.7
20260510010509 58 0 0.0 2.0 0.00 0.00 0.00 89 1031.9
20260510010029 57 0 0.0 2.0 0.00 0.00 0.00 89 1031.9
20260510005511 57 0 0.0 2.0 0.00 0.00 0.00 89 1031.9
20260510005013 57 0 0.0 3.0 0.00 0.00 0.00 90 1032.0
20260510004528 56 0 0.0 3.0 0.00 0.00 0.00 90 1032.0
20260510004011 56 0 0.0 3.0 0.00 0.00 0.00 90 1031.8
20260510003510 56 214 1.0 6.0 0.00 0.00 0.00 89 1031.9
20260510003031 56 214 2.0 6.0 0.00 0.00 0.00 90 1031.8
20260510002511 56 225 2.0 6.0 0.00 0.00 0.00 90 1031.8
20260510002014 56 240 1.0 6.0 0.00 0.00 0.00 90 1031.9
20260510001528 56 257 1.0 4.0 0.00 0.00 0.00 90 1031.8
20260510001012 56 0 0.0 0.0 0.00 0.00 0.00 90 1031.9
20260510000510 55 0 0.0 0.0 0.00 0.00 0.00 90 1031.9
20260510000028 55 0 0.0 0.0 0.00 0.00 0.00 90 1031.8
20260509235510 55 0 0.0 0.0 0.00 0.00 0.00 90 1031.9
20260509235013 55 0 0.0 0.0 0.00 0.00 0.00 90 1031.8
20260509234536 55 0 0.0 0.0 0.00 0.00 0.00 90 1032.0
20260509234010 54 0 0.0 0.0 0.00 0.00 0.00 90 1032.0
20260509233510 54 0 0.0 0.0 0.00 0.00 0.00 90 1031.9
20260509233026 54 0 0.0 0.0 0.00 0.00 0.00 90 1031.9
20260509232508 54 0 0.0 0.0 0.00 0.00 0.00 90 1032.0
20260509232011 54 0 0.0 0.0 0.00 0.00 0.00 90 1031.9
20260509231528 53 0 0.0 0.0 0.00 0.00 0.00 90 1031.9
20260509231010 53 0 0.0 0.0 0.00 0.00 0.00 90 1031.9
20260509230515 53 0 0.0 0.0 0.00 0.00 0.00 89 1031.8
20260509230028 53 0 0.0 0.0 0.00 0.00 0.00 89 1031.8
20260509225511 53 0 0.0 0.0 0.00 0.00 0.00 89 1031.8
20260509225011 52 0 0.0 0.0 0.00 0.00 0.00 89 1031.8
20260509224528 52 0 0.0 0.0 0.00 0.00 0.00 89 1031.9
20260509224010 52 0 0.0 0.0 0.00 0.00 0.00 89 1031.8
20260509223511 52 0 0.0 0.0 0.00 0.00 0.00 89 1031.7
20260509223028 51 0 0.0 0.0 0.00 0.00 0.00 89 1031.7
20260509222510 51 0 0.0 0.0 0.00 0.00 0.00 89 1031.6
20260509222010 51 0 0.0 0.0 0.00 0.00 0.00 89 1031.7
20260509221530 51 0 0.0 0.0 0.00 0.00 0.00 89 1031.6
20260509221030 50 0 0.0 0.0 0.00 0.00 0.00 89 1031.6
20260509220508 50 0 0.0 0.0 0.00 0.00 0.00 89 1031.6
20260509220029 50 0 0.0 0.0 0.00 0.00 0.00 88 1031.4
20260509215511 50 0 0.0 0.0 0.00 0.00 0.00 89 1031.4
20260509215011 49 0 0.0 0.0 0.00 0.00 0.00 88 1031.2
20260509214529 49 0 0.0 0.0 0.00 0.00 0.00 88 1031.2
20260509214014 49 0 0.0 0.0 0.00 0.00 0.00 88 1031.2
20260509213513 49 0 0.0 0.0 0.00 0.00 0.00 88 1031.1
20260509213028 49 0 0.0 0.0 0.00 0.00 0.00 88 1031.0
20260509212510 49 0 0.0 0.0 0.00 0.00 0.00 88 1031.0
20260509212011 49 0 0.0 0.0 0.00 0.00 0.00 88 1031.0
20260509211530 49 0 0.0 0.0 0.00 0.00 0.00 88 1030.9
20260509211010 48 0 0.0 0.0 0.00 0.00 0.00 88 1030.8
20260509210509 48 0 0.0 0.0 0.00 0.00 0.00 88 1030.9
20260509210030 48 0 0.0 0.0 0.00 0.00 0.00 88 1030.9
20260509205508 48 0 0.0 0.0 0.00 0.00 0.00 88 1030.8
20260509205007 48 0 0.0 0.0 0.00 0.00 0.00 88 1030.8
20260509204529 48 0 0.0 0.0 0.00 0.00 0.00 87 1030.7
20260509204010 47 0 0.0 0.0 0.00 0.00 0.00 87 1030.6
20260509203508 47 0 0.0 0.0 0.00 0.00 0.00 87 1030.5
20260509203030 47 0 0.0 0.0 0.00 0.00 0.00 87 1030.4
20260509202511 47 0 0.0 0.0 0.00 0.00 0.00 87 1030.4
20260509202011 47 0 0.0 0.0 0.00 0.00 0.00 87 1030.3
20260509201528 47 0 0.0 0.0 0.00 0.00 0.00 87 1030.2
20260509201010 47 0 0.0 0.0 0.00 0.00 0.00 87 1030.2
20260509200513 47 0 0.0 0.0 0.00 0.00 0.00 87 1030.1
20260509200030 47 0 0.0 0.0 0.00 0.00 0.00 87 1030.0
20260509195515 47 0 0.0 0.0 0.00 0.00 0.00 87 1030.1
20260509195007 46 0 0.0 0.0 0.00 0.00 0.00 87 1030.1
20260509194530 46 0 0.0 0.0 0.00 0.00 0.00 87 1030.1
20260509194009 46 0 0.0 0.0 0.00 0.00 0.00 87 1030.0
20260509193512 46 0 0.0 0.0 0.00 0.00 0.00 87 1029.9
20260509193028 46 0 0.0 0.0 0.00 0.00 0.00 87 1029.9
20260509192510 46 0 0.0 0.0 0.00 0.00 0.00 87 1029.9
20260509192017 46 0 0.0 0.0 0.00 0.00 0.00 87 1029.9
20260509191529 46 0 0.0 0.0 0.00 0.00 0.00 87 1029.9
20260509191011 46 0 0.0 0.0 0.00 0.00 0.00 86 1029.8
20260509190511 46 0 0.0 0.0 0.00 0.00 0.00 86 1029.8
20260509190028 46 0 0.0 0.0 0.00 0.00 0.00 86 1029.8
20260509185511 46 0 0.0 0.0 0.00 0.00 0.00 86 1029.8
20260509185011 46 0 0.0 0.0 0.00 0.00 0.00 86 1029.7
20260509184537 46 0 0.0 0.0 0.00 0.00 0.00 86 1029.6
20260509184012 46 0 0.0 0.0 0.00 0.00 0.00 86 1029.6
20260509183508 46 0 0.0 0.0 0.00 0.00 0.00 86 1029.6
20260509183030 46 0 0.0 0.0 0.00 0.00 0.00 86 1029.6
20260509182509 46 0 0.0 0.0 0.00 0.00 0.00 86 1029.5
20260509182010 46 0 0.0 0.0 0.00 0.00 0.00 86 1029.5
20260509181528 46 0 0.0 0.0 0.00 0.00 0.00 86 1029.5
20260509181011 46 0 0.0 0.0 0.00 0.00 0.00 86 1029.5
20260509180508 46 0 0.0 0.0 0.00 0.00 0.00 86 1029.6
20260509180028 46 0 0.0 0.0 0.00 0.00 0.00 86 1029.6
20260509175510 46 0 0.0 0.0 0.00 0.00 0.00 86 1029.7
20260509175012 46 0 0.0 0.0 0.00 0.00 0.00 86 1029.7
20260509174534 46 0 0.0 0.0 0.00 0.00 0.00 86 1029.8
20260509174007 46 0 0.0 0.0 0.00 0.00 0.00 86 1029.7
20260509173507 47 0 0.0 0.0 0.00 0.00 0.00 85 1029.7
20260509173030 47 0 0.0 0.0 0.00 0.00 0.00 85 1029.8
20260509172510 47 0 0.0 0.0 0.00 0.00 0.00 85 1029.8
20260509172010 47 0 0.0 0.0 0.00 0.00 0.00 85 1029.9
20260509171530 47 0 0.0 0.0 0.00 0.00 0.00 85 1029.8
20260509171010 47 0 0.0 0.0 0.00 0.00 0.00 85 1029.8
20260509170507 47 0 0.0 0.0 0.00 0.00 0.00 85 1029.8
20260509170030 47 0 0.0 0.0 0.00 0.00 0.00 85 1029.8
20260509165509 47 0 0.0 0.0 0.00 0.00 0.00 85 1029.9
20260509165009 47 0 0.0 0.0 0.00 0.00 0.00 85 1029.9
20260509164528 47 0 0.0 0.0 0.00 0.00 0.00 85 1029.9
20260509164010 47 0 0.0 0.0 0.00 0.00 0.00 85 1029.9
20260509163510 47 0 0.0 0.0 0.00 0.00 0.00 85 1029.9
20260509163036 47 0 0.0 0.0 0.00 0.00 0.00 85 1030.0
20260509162511 47 0 0.0 0.0 0.00 0.00 0.00 85 1030.0
20260509162011 48 0 0.0 0.0 0.00 0.00 0.00 85 1030.1
20260509161529 48 0 0.0 0.0 0.00 0.00 0.00 85 1030.2
20260509161011 48 0 0.0 0.0 0.00 0.00 0.00 85 1030.2
20260509160509 48 0 0.0 0.0 0.00 0.00 0.00 85 1030.1
20260509160030 48 0 0.0 0.0 0.00 0.00 0.00 85 1030.3
20260509155509 48 0 0.0 0.0 0.00 0.00 0.00 85 1030.2
20260509155011 48 0 0.0 0.0 0.00 0.00 0.00 85 1030.2
20260509154527 48 0 0.0 0.0 0.00 0.00 0.00 84 1030.1
20260509154011 48 0 0.0 0.0 0.00 0.00 0.00 85 1030.2
20260509153511 48 0 0.0 0.0 0.00 0.00 0.00 85 1030.2
20260509153032 48 0 0.0 0.0 0.00 0.00 0.00 85 1030.2
20260509152510 48 0 0.0 0.0 0.00 0.00 0.00 84 1030.2
20260509152016 48 0 0.0 0.0 0.00 0.00 0.00 84 1030.1
20260509151527 48 0 0.0 0.0 0.00 0.00 0.00 84 1030.3
20260509151010 48 0 0.0 0.0 0.00 0.00 0.00 84 1030.3
20260509150511 49 0 0.0 0.0 0.00 0.00 0.00 84 1030.2
20260509150028 49 0 0.0 0.0 0.00 0.00 0.00 84 1030.2
20260509145510 49 0 0.0 0.0 0.00 0.00 0.00 84 1030.3
20260509145010 49 0 0.0 0.0 0.00 0.00 0.00 84 1030.2
20260509144528 49 0 0.0 0.0 0.00 0.00 0.00 84 1030.3
20260509144010 49 0 0.0 0.0 0.00 0.00 0.00 84 1030.3
20260509143511 49 0 0.0 0.0 0.00 0.00 0.00 84 1030.3
20260509143029 49 0 0.0 0.0 0.00 0.00 0.00 84 1030.3
20260509142511 49 0 0.0 0.0 0.00 0.00 0.00 84 1030.4
20260509142009 49 0 0.0 0.0 0.00 0.00 0.00 84 1030.3
20260509141538 49 0 0.0 0.0 0.00 0.00 0.00 84 1030.4
20260509141010 49 0 0.0 0.0 0.00 0.00 0.00 84 1030.5
20260509140509 49 0 0.0 0.0 0.00 0.00 0.00 83 1030.4
20260509140028 49 0 0.0 0.0 0.00 0.00 0.00 83 1030.4
20260509135511 49 0 0.0 0.0 0.00 0.00 0.00 83 1030.5
20260509135011 50 0 0.0 0.0 0.00 0.00 0.00 83 1030.5
20260509134530 50 0 0.0 0.0 0.00 0.00 0.00 83 1030.6
20260509134009 50 0 0.0 0.0 0.00 0.00 0.00 83 1030.5
20260509133509 50 0 0.0 0.0 0.00 0.00 0.00 83 1030.6
20260509133030 50 0 0.0 1.0 0.00 0.00 0.00 83 1030.5
20260509132513 50 0 0.0 1.0 0.00 0.00 0.00 83 1030.4
20260509132011 50 0 0.0 0.0 0.00 0.00 0.00 83 1030.5
20260509131536 50 0 0.0 0.0 0.00 0.00 0.00 82 1030.4
20260509131014 50 0 0.0 0.0 0.00 0.00 0.00 82 1030.6
20260509130512 50 0 0.0 0.0 0.00 0.00 0.00 82 1030.5
20260509130031 50 0 0.0 0.0 0.00 0.00 0.00 82 1030.5
20260509125513 50 0 0.0 0.0 0.00 0.00 0.00 82 1030.5
20260509125012 50 0 0.0 0.0 0.00 0.00 0.00 82 1030.5
20260509124534 50 0 0.0 0.0 0.00 0.00 0.00 82 1030.6
20260509124012 51 0 0.0 0.0 0.00 0.00 0.00 82 1030.7
20260509123509 51 0 0.0 0.0 0.00 0.00 0.00 82 1030.7
20260509123043 51 0 0.0 0.0 0.00 0.00 0.00 82 1030.7
20260509122511 51 0 0.0 0.0 0.00 0.00 0.00 82 1030.7
20260509122009 51 0 0.0 0.0 0.00 0.00 0.00 82 1030.6
20260509121526 51 0 0.0 0.0 0.00 0.00 0.00 82 1030.5
20260509121011 51 0 0.0 0.0 0.00 0.00 0.00 82 1030.5
20260509120509 51 0 0.0 0.0 0.00 0.00 0.00 82 1030.6
20260509120030 52 0 0.0 0.0 0.00 0.00 0.00 81 1030.4
20260509115510 52 0 0.0 0.0 0.00 0.00 0.00 81 1030.4
20260509115015 52 0 0.0 0.0 0.00 0.00 0.00 81 1030.4
20260509114527 52 0 0.0 0.0 0.00 0.00 0.00 81 1030.3
20260509114008 52 0 0.0 0.0 0.00 0.00 0.00 81 1030.3
20260509113509 52 0 0.0 0.0 0.00 0.00 0.00 81 1030.4
20260509113028 53 0 0.0 0.0 0.00 0.00 0.00 81 1030.4
20260509112509 53 0 0.0 0.0 0.00 0.00 0.00 81 1030.3
20260509112011 53 0 0.0 0.0 0.00 0.00 0.00 81 1030.3
20260509111540 53 0 0.0 0.0 0.00 0.00 0.00 81 1030.3
20260509111012 53 0 0.0 2.0 0.00 0.00 0.00 81 1030.3
20260509110510 53 0 0.0 2.0 0.00 0.00 0.00 80 1030.3
20260509110027 53 244 0.0 1.0 0.00 0.00 0.00 80 1030.4
20260509105509 53 0 0.0 0.0 0.00 0.00 0.00 80 1030.2
20260509105011 53 0 0.0 0.0 0.00 0.00 0.00 80 1030.4
20260509104529 53 0 0.0 0.0 0.00 0.00 0.00 80 1030.4
20260509104010 54 0 0.0 0.0 0.00 0.00 0.00 79 1030.2
20260509103510 54 0 0.0 0.0 0.00 0.00 0.00 80 1030.4
20260509103030 54 0 0.0 0.0 0.00 0.00 0.00 79 1030.3
20260509102510 54 0 0.0 0.0 0.00 0.00 0.00 79 1030.4
20260509102009 54 0 0.0 0.0 0.00 0.00 0.00 79 1030.4
20260509101532 55 0 0.0 0.0 0.00 0.00 0.00 79 1030.3
20260509101008 55 0 0.0 0.0 0.00 0.00 0.00 79 1030.4
20260509100509 55 0 0.0 0.0 0.00 0.00 0.00 79 1030.4
20260509100032 55 0 0.0 0.0 0.00 0.00 0.00 79 1030.1
20260509095512 56 0 0.0 0.0 0.00 0.00 0.00 79 1030.2
20260509095011 56 0 0.0 0.0 0.00 0.00 0.00 79 1030.2
20260509094531 56 0 0.0 0.0 0.00 0.00 0.00 79 1030.1
20260509094011 56 0 0.0 0.0 0.00 0.00 0.00 78 1030.1
20260509093510 57 0 0.0 0.0 0.00 0.00 0.00 78 1030.1
20260509093030 57 0 0.0 0.0 0.00 0.00 0.00 78 1030.1
20260509092512 57 0 0.0 0.0 0.00 0.00 0.00 78 1030.1
20260509092009 57 0 0.0 0.0 0.00 0.00 0.00 78 1029.9
20260509091533 58 0 0.0 0.0 0.00 0.00 0.00 78 1030.0
20260509091010 58 0 0.0 0.0 0.00 0.00 0.00 78 1030.0
20260509090510 58 0 0.0 0.0 0.00 0.00 0.00 78 1030.0
20260509090028 59 0 0.0 0.0 0.00 0.00 0.00 78 1030.0
20260509085510 59 0 0.0 0.0 0.00 0.00 0.00 78 1030.0
20260509085010 59 0 0.0 0.0 0.00 0.00 0.00 78 1029.9
20260509084530 60 0 0.0 0.0 0.00 0.00 0.00 78 1029.9
20260509084010 60 0 0.0 0.0 0.00 0.00 0.00 78 1029.9
20260509083512 60 0 0.0 0.0 0.00 0.00 0.00 78 1029.9
20260509083039 60 0 0.0 0.0 0.00 0.00 0.00 78 1029.7
20260509082511 61 0 0.0 0.0 0.00 0.00 0.00 78 1029.7
20260509082011 61 0 0.0 0.0 0.00 0.00 0.00 78 1029.6
20260509081532 61 0 0.0 0.0 0.00 0.00 0.00 78 1029.6